Year,Month,Day,Hour,Minute,Value (Times are PST for windspeed in km/hr)
2020,02,24,00,00,8.40
2020,02,24,00,01,10.90
2020,02,24,00,02,9.30
2020,02,24,00,03,11.70
2020,02,24,00,04,5.70
2020,02,24,00,05,10.50
2020,02,24,00,06,8.80
2020,02,24,00,07,6.40
2020,02,24,00,08,5.50
2020,02,24,00,09,9.80
2020,02,24,00,10,12.90
2020,02,24,00,11,9.60
2020,02,24,00,12,7.50
2020,02,24,00,13,4.90
2020,02,24,00,14,5.50
2020,02,24,00,15,4.00
2020,02,24,00,16,4.40
2020,02,24,00,17,5.10
2020,02,24,00,18,3.90
2020,02,24,00,19,7.50
2020,02,24,00,20,4.70
2020,02,24,00,21,6.40
2020,02,24,00,22,1.40
2020,02,24,00,23,3.40
2020,02,24,00,24,7.90
2020,02,24,00,25,2.00
2020,02,24,00,26,7.10
2020,02,24,00,27,1.40
2020,02,24,00,28,7.60
2020,02,24,00,29,5.80
2020,02,24,00,30,7.50
2020,02,24,00,31,7.00
2020,02,24,00,32,9.20
2020,02,24,00,33,9.20
2020,02,24,00,34,20.50
2020,02,24,00,35,4.10
2020,02,24,00,36,3.40
2020,02,24,00,37,3.60
2020,02,24,00,38,0.30
2020,02,24,00,39,4.10
2020,02,24,00,40,3.60
2020,02,24,00,41,3.80
2020,02,24,00,42,1.40
2020,02,24,00,43,0.20
2020,02,24,00,44,3.90
2020,02,24,00,45,4.70
2020,02,24,00,46,6.80
2020,02,24,00,47,1.40
2020,02,24,00,48,1.00
2020,02,24,00,49,1.60
2020,02,24,00,50,0.50
2020,02,24,00,51,2.00
2020,02,24,00,52,2.80
2020,02,24,00,53,2.30
2020,02,24,00,54,3.40
2020,02,24,00,55,2.20
2020,02,24,00,56,7.50
2020,02,24,00,57,3.50
2020,02,24,00,58,4.00
2020,02,24,00,59,5.20
2020,02,24,01,00,6.20
2020,02,24,01,01,4.70
2020,02,24,01,02,1.50
2020,02,24,01,03,1.50
2020,02,24,01,04,0.60
2020,02,24,01,05,3.90
2020,02,24,01,06,7.70
2020,02,24,01,07,2.50
2020,02,24,01,08,3.90
2020,02,24,01,09,3.80
2020,02,24,01,10,6.70
2020,02,24,01,11,6.70
2020,02,24,01,12,5.00
2020,02,24,01,13,8.50
2020,02,24,01,14,7.70
2020,02,24,01,15,5.80
2020,02,24,01,16,5.20
2020,02,24,01,17,2.00
2020,02,24,01,18,1.80
2020,02,24,01,19,4.10
2020,02,24,01,20,2.40
2020,02,24,01,21,2.30
2020,02,24,01,22,2.90
2020,02,24,01,23,0.60
2020,02,24,01,24,2.90
2020,02,24,01,25,1.40
2020,02,24,01,26,1.00
2020,02,24,01,27,1.90
2020,02,24,01,28,0.30
2020,02,24,01,29,0.00
2020,02,24,01,30,2.50
2020,02,24,01,31,1.80
2020,02,24,01,32,8.30
2020,02,24,01,33,6.00
2020,02,24,01,34,5.40
2020,02,24,01,35,13.40
2020,02,24,01,36,8.60
2020,02,24,01,37,3.10
2020,02,24,01,38,2.40
2020,02,24,01,39,2.80
2020,02,24,01,40,13.70
2020,02,24,01,41,4.70
2020,02,24,01,42,0.10
2020,02,24,01,43,0.40
2020,02,24,01,44,6.20
2020,02,24,01,45,6.90
2020,02,24,01,46,5.50
2020,02,24,01,47,4.30
2020,02,24,01,48,6.90
2020,02,24,01,49,5.60
2020,02,24,01,50,1.90
2020,02,24,01,51,4.30
2020,02,24,01,52,4.60
2020,02,24,01,53,3.40
2020,02,24,01,54,0.70
2020,02,24,01,55,4.50
2020,02,24,01,56,1.80
2020,02,24,01,57,0.00
2020,02,24,01,58,6.40
2020,02,24,01,59,1.50
2020,02,24,02,00,4.50
2020,02,24,02,01,0.70
2020,02,24,02,02,5.50
2020,02,24,02,03,6.20
2020,02,24,02,04,5.00
2020,02,24,02,05,8.10
2020,02,24,02,06,3.60
2020,02,24,02,07,10.20
2020,02,24,02,08,2.00
2020,02,24,02,09,4.70
2020,02,24,02,10,10.10
2020,02,24,02,11,6.50
2020,02,24,02,12,4.10
2020,02,24,02,13,2.20
2020,02,24,02,14,7.90
2020,02,24,02,15,7.00
2020,02,24,02,16,5.60
2020,02,24,02,17,3.60
2020,02,24,02,18,5.90
2020,02,24,02,19,10.40
2020,02,24,02,20,18.70
2020,02,24,02,21,13.20
2020,02,24,02,22,5.50
2020,02,24,02,23,3.20
2020,02,24,02,24,5.80
2020,02,24,02,25,0.20
2020,02,24,02,26,3.90
2020,02,24,02,27,4.00
2020,02,24,02,28,7.80
2020,02,24,02,29,10.30
2020,02,24,02,30,8.40
2020,02,24,02,31,4.10
2020,02,24,02,32,10.80
2020,02,24,02,33,13.60
2020,02,24,02,34,4.40
2020,02,24,02,35,4.10
2020,02,24,02,36,6.70
2020,02,24,02,37,6.80
2020,02,24,02,38,8.40
2020,02,24,02,39,0.80
2020,02,24,02,40,3.70
2020,02,24,02,41,3.50
2020,02,24,02,42,3.60
2020,02,24,02,43,4.30
2020,02,24,02,44,8.80
2020,02,24,02,45,11.10
2020,02,24,02,46,6.40
2020,02,24,02,47,1.50
2020,02,24,02,48,3.00
2020,02,24,02,49,6.20
2020,02,24,02,50,8.30
2020,02,24,02,51,1.20
2020,02,24,02,52,0.90
2020,02,24,02,53,3.60
2020,02,24,02,54,4.10
2020,02,24,02,55,2.30
2020,02,24,02,56,0.00
2020,02,24,02,57,0.00
2020,02,24,02,58,0.20
2020,02,24,02,59,3.70
2020,02,24,03,00,8.00
2020,02,24,03,01,1.60
2020,02,24,03,02,4.80
2020,02,24,03,03,1.40
2020,02,24,03,04,4.00
2020,02,24,03,05,4.50
2020,02,24,03,06,11.60
2020,02,24,03,07,14.80
2020,02,24,03,08,6.20
2020,02,24,03,09,4.20
2020,02,24,03,10,4.70
2020,02,24,03,11,2.00
2020,02,24,03,12,0.70
2020,02,24,03,13,6.00
2020,02,24,03,14,2.50
2020,02,24,03,15,1.50
2020,02,24,03,16,2.80
2020,02,24,03,17,5.40
2020,02,24,03,18,9.80
2020,02,24,03,19,14.10
2020,02,24,03,20,11.40
2020,02,24,03,21,9.50
2020,02,24,03,22,10.50
2020,02,24,03,23,5.00
2020,02,24,03,24,2.30
2020,02,24,03,25,0.60
2020,02,24,03,26,3.00
2020,02,24,03,27,7.40
2020,02,24,03,28,12.70
2020,02,24,03,29,8.00
2020,02,24,03,30,6.00
2020,02,24,03,31,2.20
2020,02,24,03,32,18.10
2020,02,24,03,33,12.30
2020,02,24,03,34,3.40
2020,02,24,03,35,0.10
2020,02,24,03,36,5.50
2020,02,24,03,37,4.10
2020,02,24,03,38,10.50
2020,02,24,03,39,9.70
2020,02,24,03,40,7.80
2020,02,24,03,41,7.40
2020,02,24,03,42,15.90
2020,02,24,03,43,9.10
2020,02,24,03,44,3.10
2020,02,24,03,45,3.80
2020,02,24,03,46,11.60
2020,02,24,03,47,7.80
2020,02,24,03,48,8.70
2020,02,24,03,49,15.70
2020,02,24,03,50,7.00
2020,02,24,03,51,11.20
2020,02,24,03,52,7.90
2020,02,24,03,53,5.00
2020,02,24,03,54,7.90
2020,02,24,03,55,14.80
2020,02,24,03,56,11.40
2020,02,24,03,57,7.90
2020,02,24,03,58,6.60
2020,02,24,03,59,10.10
2020,02,24,04,00,5.70
2020,02,24,04,01,9.40
2020,02,24,04,02,4.00
2020,02,24,04,03,3.40
2020,02,24,04,04,0.50
2020,02,24,04,05,11.50
2020,02,24,04,06,9.80
2020,02,24,04,07,9.60
2020,02,24,04,08,8.90
2020,02,24,04,09,7.70
2020,02,24,04,10,14.10
2020,02,24,04,11,6.10
2020,02,24,04,12,8.40
2020,02,24,04,13,4.70
2020,02,24,04,14,4.80
2020,02,24,04,15,12.20
2020,02,24,04,16,10.10
2020,02,24,04,17,10.90
2020,02,24,04,18,5.40
2020,02,24,04,19,7.80
2020,02,24,04,20,9.90
2020,02,24,04,21,6.90
2020,02,24,04,22,0.90
2020,02,24,04,23,5.10
2020,02,24,04,24,13.00
2020,02,24,04,25,7.40
2020,02,24,04,26,3.70
2020,02,24,04,27,1.60
2020,02,24,04,28,5.40
2020,02,24,04,29,7.70
2020,02,24,04,30,9.30
2020,02,24,04,31,8.20
2020,02,24,04,32,15.90
2020,02,24,04,33,11.00
2020,02,24,04,34,9.70
2020,02,24,04,35,8.00
2020,02,24,04,36,5.50
2020,02,24,04,37,3.00
2020,02,24,04,38,14.10
2020,02,24,04,39,8.00
2020,02,24,04,40,11.40
2020,02,24,04,41,9.90
2020,02,24,04,42,11.40
2020,02,24,04,43,9.70
2020,02,24,04,44,9.20
2020,02,24,04,45,10.80
2020,02,24,04,46,6.00
2020,02,24,04,47,1.40
2020,02,24,04,48,1.30
2020,02,24,04,49,2.70
2020,02,24,04,50,4.60
2020,02,24,04,51,5.30
2020,02,24,04,52,7.90
2020,02,24,04,53,12.60
2020,02,24,04,54,8.20
2020,02,24,04,55,5.10
2020,02,24,04,56,3.10
2020,02,24,04,57,6.30
2020,02,24,04,58,6.40
2020,02,24,04,59,3.90
2020,02,24,05,00,9.60
2020,02,24,05,01,3.90
2020,02,24,05,02,4.40
2020,02,24,05,03,1.10
2020,02,24,05,04,6.80
2020,02,24,05,05,4.50
2020,02,24,05,06,6.60
2020,02,24,05,07,6.20
2020,02,24,05,08,6.40
2020,02,24,05,09,1.60
2020,02,24,05,10,3.00
2020,02,24,05,11,6.70
2020,02,24,05,12,5.60
2020,02,24,05,13,6.60
2020,02,24,05,14,4.80
2020,02,24,05,15,4.70
2020,02,24,05,16,1.40
2020,02,24,05,17,0.80
2020,02,24,05,18,0.20
2020,02,24,05,19,2.90
2020,02,24,05,20,2.90
2020,02,24,05,21,2.70
2020,02,24,05,22,1.90
2020,02,24,05,23,2.60
2020,02,24,05,24,4.30
2020,02,24,05,25,5.30
2020,02,24,05,26,1.40
2020,02,24,05,27,0.30
2020,02,24,05,28,1.50
2020,02,24,05,29,1.30
2020,02,24,05,30,0.60
2020,02,24,05,31,1.10
2020,02,24,05,32,6.10
2020,02,24,05,33,4.50
2020,02,24,05,34,0.50
2020,02,24,05,35,5.40
2020,02,24,05,36,5.90
2020,02,24,05,37,4.20
2020,02,24,05,38,4.00
2020,02,24,05,39,11.40
2020,02,24,05,40,14.00
2020,02,24,05,41,6.10
2020,02,24,05,42,13.50
2020,02,24,05,43,8.00
2020,02,24,05,44,9.70
2020,02,24,05,45,11.90
2020,02,24,05,46,11.20
2020,02,24,05,47,15.80
2020,02,24,05,48,13.00
2020,02,24,05,49,11.30
2020,02,24,05,50,8.90
2020,02,24,05,51,6.30
2020,02,24,05,52,12.60
2020,02,24,05,53,7.50
2020,02,24,05,54,10.80
2020,02,24,05,55,6.80
2020,02,24,05,56,11.50
2020,02,24,05,57,8.00
2020,02,24,05,58,2.50
2020,02,24,05,59,4.50
2020,02,24,06,00,5.80
2020,02,24,06,01,5.70
2020,02,24,06,02,6.50
2020,02,24,06,03,6.60
2020,02,24,06,04,7.00
2020,02,24,06,05,7.10
2020,02,24,06,06,9.00
2020,02,24,06,07,9.60
2020,02,24,06,08,8.60
2020,02,24,06,09,4.40
2020,02,24,06,10,3.50
2020,02,24,06,11,2.50
2020,02,24,06,12,4.20
2020,02,24,06,13,2.70
2020,02,24,06,14,1.40
2020,02,24,06,15,0.70
2020,02,24,06,16,0.40
2020,02,24,06,17,0.80
2020,02,24,06,18,0.80
2020,02,24,06,19,2.40
2020,02,24,06,20,0.80
2020,02,24,06,21,2.50
2020,02,24,06,22,4.20
2020,02,24,06,23,0.40
2020,02,24,06,24,0.30
2020,02,24,06,25,0.00
2020,02,24,06,26,1.40
2020,02,24,06,27,4.60
2020,02,24,06,28,1.90
2020,02,24,06,29,0.70
2020,02,24,06,30,2.70
2020,02,24,06,31,2.30
2020,02,24,06,32,0.40
2020,02,24,06,33,0.00
2020,02,24,06,34,3.00
2020,02,24,06,35,1.40
2020,02,24,06,36,0.60
2020,02,24,06,37,3.60
2020,02,24,06,38,2.30
2020,02,24,06,39,2.50
2020,02,24,06,40,1.20
2020,02,24,06,41,3.40
2020,02,24,06,42,3.70
2020,02,24,06,43,1.30
2020,02,24,06,44,2.40
2020,02,24,06,45,0.60
2020,02,24,06,46,0.00
2020,02,24,06,47,0.00
2020,02,24,06,48,0.10
2020,02,24,06,49,1.00
2020,02,24,06,50,4.70
2020,02,24,06,51,3.50
2020,02,24,06,52,4.50
2020,02,24,06,53,1.40
2020,02,24,06,54,3.60
2020,02,24,06,55,9.70
2020,02,24,06,56,4.70
2020,02,24,06,57,5.50
2020,02,24,06,58,2.00
2020,02,24,06,59,0.90
2020,02,24,07,00,5.80
2020,02,24,07,01,3.50
2020,02,24,07,02,2.60
2020,02,24,07,03,2.90
2020,02,24,07,04,0.80
2020,02,24,07,05,0.70
2020,02,24,07,06,4.20
2020,02,24,07,07,3.50
2020,02,24,07,08,2.90
2020,02,24,07,09,0.00
2020,02,24,07,10,2.10
2020,02,24,07,11,4.20
2020,02,24,07,12,0.70
2020,02,24,07,13,4.70
2020,02,24,07,14,6.50
2020,02,24,07,15,1.60
2020,02,24,07,16,1.40
2020,02,24,07,17,2.90
2020,02,24,07,18,0.30
2020,02,24,07,19,0.00
2020,02,24,07,20,1.30
2020,02,24,07,21,0.00
2020,02,24,07,22,3.60
2020,02,24,07,23,4.10
2020,02,24,07,24,2.30
2020,02,24,07,25,0.10
2020,02,24,07,26,2.60
2020,02,24,07,27,6.60
2020,02,24,07,28,1.40
2020,02,24,07,29,1.60
2020,02,24,07,30,0.00
2020,02,24,07,31,3.10
2020,02,24,07,32,0.40
2020,02,24,07,33,0.00
2020,02,24,07,34,0.70
2020,02,24,07,35,0.20
2020,02,24,07,36,2.10
2020,02,24,07,37,0.60
2020,02,24,07,38,2.00
2020,02,24,07,39,2.50
2020,02,24,07,40,1.70
2020,02,24,07,41,3.40
2020,02,24,07,42,0.40
2020,02,24,07,43,0.10
2020,02,24,07,44,0.40
2020,02,24,07,45,0.00
2020,02,24,07,46,0.30
2020,02,24,07,47,3.10
2020,02,24,07,48,2.60
2020,02,24,07,49,2.30
2020,02,24,07,50,0.20
2020,02,24,07,51,0.00
2020,02,24,07,52,0.00
2020,02,24,07,53,0.00
2020,02,24,07,54,0.00
2020,02,24,07,55,0.00
2020,02,24,07,56,0.00
2020,02,24,07,57,0.00
2020,02,24,07,58,0.00
2020,02,24,07,59,0.00
2020,02,24,08,00,0.00
2020,02,24,08,01,0.00
2020,02,24,08,02,0.00
2020,02,24,08,03,3.00
2020,02,24,08,04,0.00
2020,02,24,08,05,0.00
2020,02,24,08,06,0.00
2020,02,24,08,07,0.30
2020,02,24,08,08,1.10
2020,02,24,08,09,1.90
2020,02,24,08,10,0.10
2020,02,24,08,11,0.50
2020,02,24,08,12,0.60
2020,02,24,08,13,0.00
2020,02,24,08,14,0.00
2020,02,24,08,15,0.00
2020,02,24,08,16,0.00
2020,02,24,08,17,0.00
2020,02,24,08,18,0.00
2020,02,24,08,19,0.00
2020,02,24,08,20,0.00
2020,02,24,08,21,0.00
2020,02,24,08,22,0.00
2020,02,24,08,23,0.00
2020,02,24,08,24,0.00
2020,02,24,08,25,0.00
2020,02,24,08,26,0.00
2020,02,24,08,27,0.00
2020,02,24,08,28,0.00
2020,02,24,08,29,0.00
2020,02,24,08,30,0.00
2020,02,24,08,31,0.00
2020,02,24,08,32,0.70
2020,02,24,08,33,3.50
2020,02,24,08,34,5.80
2020,02,24,08,35,2.60
2020,02,24,08,36,0.90
2020,02,24,08,37,4.10
2020,02,24,08,38,2.90
2020,02,24,08,39,1.30
2020,02,24,08,40,4.80
2020,02,24,08,41,0.60
2020,02,24,08,42,1.30
2020,02,24,08,43,1.30
2020,02,24,08,44,3.90
2020,02,24,08,45,2.90
2020,02,24,08,46,0.70
2020,02,24,08,47,0.00
2020,02,24,08,48,0.00
2020,02,24,08,49,0.00
2020,02,24,08,50,0.60
2020,02,24,08,51,0.00
2020,02,24,08,52,0.00
2020,02,24,08,53,1.20
2020,02,24,08,54,0.30
2020,02,24,08,55,0.00
2020,02,24,08,56,0.00
2020,02,24,08,57,0.00
2020,02,24,08,58,0.00
2020,02,24,08,59,0.00
2020,02,24,09,00,0.70
2020,02,24,09,01,0.80
2020,02,24,09,02,0.50
2020,02,24,09,03,0.00
2020,02,24,09,04,0.00
2020,02,24,09,05,0.10
2020,02,24,09,06,1.20
2020,02,24,09,07,0.00
2020,02,24,09,08,0.00
2020,02,24,09,09,0.00
2020,02,24,09,10,0.00
2020,02,24,09,11,0.00
2020,02,24,09,12,0.00
2020,02,24,09,13,0.00
2020,02,24,09,14,0.00
2020,02,24,09,15,0.00
2020,02,24,09,16,0.00
2020,02,24,09,17,0.00
2020,02,24,09,18,0.00
2020,02,24,09,19,0.00
2020,02,24,09,20,0.00
2020,02,24,09,21,0.00
2020,02,24,09,22,0.00
2020,02,24,09,23,0.00
2020,02,24,09,24,0.00
2020,02,24,09,25,0.00
2020,02,24,09,26,0.00
2020,02,24,09,27,0.00
2020,02,24,09,28,0.00
2020,02,24,09,29,0.00
2020,02,24,09,30,0.00
2020,02,24,09,31,0.00
2020,02,24,09,32,0.00
2020,02,24,09,33,3.90
2020,02,24,09,34,2.00
2020,02,24,09,35,0.00
2020,02,24,09,36,0.00
2020,02,24,09,37,0.00
2020,02,24,09,38,0.40
2020,02,24,09,39,2.60
2020,02,24,09,40,0.00
2020,02,24,09,41,0.90
2020,02,24,09,42,0.00
2020,02,24,09,43,0.00
2020,02,24,09,44,0.00
2020,02,24,09,45,0.00
2020,02,24,09,46,0.10
2020,02,24,09,47,4.20
2020,02,24,09,48,0.80
2020,02,24,09,49,0.00
2020,02,24,09,50,0.00
2020,02,24,09,51,0.00
2020,02,24,09,52,2.70
2020,02,24,09,53,0.60
2020,02,24,09,54,2.40
2020,02,24,09,55,0.00
2020,02,24,09,56,0.00
2020,02,24,09,57,0.00
2020,02,24,09,58,0.00
2020,02,24,09,59,0.40
2020,02,24,10,00,0.00
2020,02,24,10,01,0.30
2020,02,24,10,02,1.40
2020,02,24,10,03,0.00
2020,02,24,10,04,2.40
2020,02,24,10,05,3.40
2020,02,24,10,06,2.90
2020,02,24,10,07,0.00
2020,02,24,10,08,1.20
2020,02,24,10,09,1.80
2020,02,24,10,10,0.00
2020,02,24,10,11,0.00
2020,02,24,10,12,0.00
2020,02,24,10,13,3.00
2020,02,24,10,14,7.90
2020,02,24,10,15,1.40
2020,02,24,10,16,0.00
2020,02,24,10,17,0.90
2020,02,24,10,18,1.10
2020,02,24,10,19,0.00
2020,02,24,10,20,0.00
2020,02,24,10,21,0.00
2020,02,24,10,22,0.00
2020,02,24,10,23,1.20
2020,02,24,10,24,1.50
2020,02,24,10,25,8.00
2020,02,24,10,26,7.10
2020,02,24,10,27,5.90
2020,02,24,10,28,6.10
2020,02,24,10,29,1.40
2020,02,24,10,30,2.40
2020,02,24,10,31,0.20
2020,02,24,10,32,5.10
2020,02,24,10,33,12.40
2020,02,24,10,34,4.40
2020,02,24,10,35,3.70
2020,02,24,10,36,5.60
2020,02,24,10,37,2.60
2020,02,24,10,38,0.00
2020,02,24,10,39,0.00
2020,02,24,10,40,0.70
2020,02,24,10,41,0.00
2020,02,24,10,42,0.10
2020,02,24,10,43,0.10
2020,02,24,10,44,2.10
2020,02,24,10,45,3.60
2020,02,24,10,46,3.20
2020,02,24,10,47,2.70
2020,02,24,10,48,0.90
2020,02,24,10,49,0.70
2020,02,24,10,50,1.90
2020,02,24,10,51,5.30
2020,02,24,10,52,6.20
2020,02,24,10,53,3.60
2020,02,24,10,54,4.10
2020,02,24,10,55,0.90
2020,02,24,10,56,8.10
2020,02,24,10,57,3.20
2020,02,24,10,58,0.00
2020,02,24,10,59,0.60
2020,02,24,11,00,2.50
2020,02,24,11,01,3.70
2020,02,24,11,02,3.10
2020,02,24,11,03,16.40
2020,02,24,11,04,9.20
2020,02,24,11,05,7.80
2020,02,24,11,06,11.80
2020,02,24,11,07,10.80
2020,02,24,11,08,6.50
2020,02,24,11,09,4.80
2020,02,24,11,10,4.50
2020,02,24,11,11,12.00
2020,02,24,11,12,12.20
2020,02,24,11,13,13.10
2020,02,24,11,14,3.40
2020,02,24,11,15,3.40
2020,02,24,11,16,3.20
2020,02,24,11,17,2.10
2020,02,24,11,18,5.80
2020,02,24,11,19,5.20
2020,02,24,11,20,7.40
2020,02,24,11,21,7.50
2020,02,24,11,22,5.30
2020,02,24,11,23,11.90
2020,02,24,11,24,9.50
2020,02,24,11,25,11.90
2020,02,24,11,26,5.90
2020,02,24,11,27,1.00
2020,02,24,11,28,2.10
2020,02,24,11,29,8.00
2020,02,24,11,30,2.40
2020,02,24,11,31,7.50
2020,02,24,11,32,5.70
2020,02,24,11,33,9.70
2020,02,24,11,34,4.30
2020,02,24,11,35,13.30
2020,02,24,11,36,14.00
2020,02,24,11,37,12.40
2020,02,24,11,38,6.20
2020,02,24,11,39,5.20
2020,02,24,11,40,7.80
2020,02,24,11,41,12.00
2020,02,24,11,42,7.90
2020,02,24,11,43,14.30
2020,02,24,11,44,13.30
2020,02,24,11,45,9.90
2020,02,24,11,46,15.40
2020,02,24,11,47,7.80
2020,02,24,11,48,6.50
2020,02,24,11,49,14.20
2020,02,24,11,50,6.20
2020,02,24,11,51,11.30
2020,02,24,11,52,12.70
2020,02,24,11,53,4.20
2020,02,24,11,54,7.10
2020,02,24,11,55,6.10
2020,02,24,11,56,2.70
2020,02,24,11,57,4.40
2020,02,24,11,58,7.30
2020,02,24,11,59,10.90
2020,02,24,12,00,9.20
2020,02,24,12,01,7.40
2020,02,24,12,02,2.10
2020,02,24,12,03,0.10
2020,02,24,12,04,4.70
2020,02,24,12,05,5.20
2020,02,24,12,06,7.70
2020,02,24,12,07,7.50
2020,02,24,12,08,2.50
2020,02,24,12,09,0.80
2020,02,24,12,10,5.40
2020,02,24,12,11,6.00
2020,02,24,12,12,1.90
2020,02,24,12,13,9.30
2020,02,24,12,14,9.80
2020,02,24,12,15,4.70
2020,02,24,12,16,8.50
2020,02,24,12,17,16.30
2020,02,24,12,18,8.80
2020,02,24,12,19,15.60
2020,02,24,12,20,12.10
2020,02,24,12,21,3.30
2020,02,24,12,22,4.00
2020,02,24,12,23,7.20
2020,02,24,12,24,7.70
2020,02,24,12,25,7.50
2020,02,24,12,26,8.70
2020,02,24,12,27,6.80
2020,02,24,12,28,11.30
2020,02,24,12,29,3.10
2020,02,24,12,30,1.30
2020,02,24,12,31,2.70
2020,02,24,12,32,6.40
2020,02,24,12,33,10.70
2020,02,24,12,34,10.90
2020,02,24,12,35,9.70
2020,02,24,12,36,15.90
2020,02,24,12,37,17.60
2020,02,24,12,38,11.60
2020,02,24,12,39,16.40
2020,02,24,12,40,13.10
2020,02,24,12,41,13.60
2020,02,24,12,42,9.10
2020,02,24,12,43,12.20
2020,02,24,12,44,3.70
2020,02,24,12,45,10.30
2020,02,24,12,46,8.40
2020,02,24,12,47,5.50
2020,02,24,12,48,7.40
2020,02,24,12,49,6.30
2020,02,24,12,50,3.10
2020,02,24,12,51,2.60
2020,02,24,12,52,8.90
2020,02,24,12,53,17.00
2020,02,24,12,54,12.60
2020,02,24,12,55,2.50
2020,02,24,12,56,4.70
2020,02,24,12,57,5.80
2020,02,24,12,58,7.80
2020,02,24,12,59,6.40
2020,02,24,13,00,8.40
2020,02,24,13,01,1.80
2020,02,24,13,02,3.40
2020,02,24,13,03,9.10
2020,02,24,13,04,9.10
2020,02,24,13,05,8.90
2020,02,24,13,06,5.00
2020,02,24,13,07,2.80
2020,02,24,13,08,5.70
2020,02,24,13,09,7.60
2020,02,24,13,10,4.60
2020,02,24,13,11,11.30
2020,02,24,13,12,15.60
2020,02,24,13,13,11.70
2020,02,24,13,14,10.20
2020,02,24,13,15,2.90
2020,02,24,13,16,5.80
2020,02,24,13,17,6.90
2020,02,24,13,18,13.70
2020,02,24,13,19,15.70
2020,02,24,13,20,11.50
2020,02,24,13,21,1.70
2020,02,24,13,22,3.50
2020,02,24,13,23,6.90
2020,02,24,13,24,7.00
2020,02,24,13,25,8.60
2020,02,24,13,26,7.90
2020,02,24,13,27,6.90
2020,02,24,13,28,2.20
2020,02,24,13,29,7.30
2020,02,24,13,30,5.10
2020,02,24,13,31,5.80
2020,02,24,13,32,3.30
2020,02,24,13,33,1.70
2020,02,24,13,34,1.40
2020,02,24,13,35,6.40
2020,02,24,13,36,8.50
2020,02,24,13,37,5.20
2020,02,24,13,38,7.50
2020,02,24,13,39,1.60
2020,02,24,13,40,3.00
2020,02,24,13,41,10.40
2020,02,24,13,42,3.00
2020,02,24,13,43,4.20
2020,02,24,13,44,5.00
2020,02,24,13,45,5.10
2020,02,24,13,46,3.70
2020,02,24,13,47,0.50
2020,02,24,13,48,5.80
2020,02,24,13,49,5.90
2020,02,24,13,50,1.90
2020,02,24,13,51,4.10
2020,02,24,13,52,10.00
2020,02,24,13,53,5.30
2020,02,24,13,54,5.20
2020,02,24,13,55,8.60
2020,02,24,13,56,4.70
2020,02,24,13,57,4.90
2020,02,24,13,58,4.80
2020,02,24,13,59,2.20
2020,02,24,14,00,4.00
2020,02,24,14,01,11.30
2020,02,24,14,02,12.70
2020,02,24,14,03,8.40
2020,02,24,14,04,4.20
2020,02,24,14,05,1.90
2020,02,24,14,06,4.20
2020,02,24,14,07,9.70
2020,02,24,14,08,3.40
2020,02,24,14,09,3.40
2020,02,24,14,10,4.50
2020,02,24,14,11,4.40
2020,02,24,14,12,7.00
2020,02,24,14,13,11.90
2020,02,24,14,14,6.40
2020,02,24,14,15,5.40
2020,02,24,14,16,11.20
2020,02,24,14,17,5.40
2020,02,24,14,18,2.30
2020,02,24,14,19,7.80
2020,02,24,14,20,7.70
2020,02,24,14,21,13.40
2020,02,24,14,22,11.90
2020,02,24,14,23,6.40
2020,02,24,14,24,4.10
2020,02,24,14,25,7.50
2020,02,24,14,26,1.00
2020,02,24,14,27,6.70
2020,02,24,14,28,2.80
2020,02,24,14,29,0.70
2020,02,24,14,30,1.30
2020,02,24,14,31,13.10
2020,02,24,14,32,8.20
2020,02,24,14,33,1.20
2020,02,24,14,34,7.10
2020,02,24,14,35,5.90
2020,02,24,14,36,6.00
2020,02,24,14,37,12.20
2020,02,24,14,38,6.40
2020,02,24,14,39,0.20
2020,02,24,14,40,1.60
2020,02,24,14,41,8.30
2020,02,24,14,42,5.60
2020,02,24,14,43,4.90
2020,02,24,14,44,6.00
2020,02,24,14,45,10.30
2020,02,24,14,46,1.50
2020,02,24,14,47,5.40
2020,02,24,14,48,5.90
2020,02,24,14,49,2.80
2020,02,24,14,50,1.30
2020,02,24,14,51,8.30
2020,02,24,14,52,4.90
2020,02,24,14,53,8.10
2020,02,24,14,54,5.10
2020,02,24,14,55,6.40
2020,02,24,14,56,6.70
2020,02,24,14,57,12.40
2020,02,24,14,58,10.20
2020,02,24,14,59,6.00
2020,02,24,15,00,11.40
2020,02,24,15,01,7.30
2020,02,24,15,02,6.50
2020,02,24,15,03,8.90
2020,02,24,15,04,9.20
2020,02,24,15,05,2.60
2020,02,24,15,06,3.30
2020,02,24,15,07,4.90
2020,02,24,15,08,2.60
2020,02,24,15,09,1.80
2020,02,24,15,10,3.70
2020,02,24,15,11,14.90
2020,02,24,15,12,17.10
2020,02,24,15,13,10.70
2020,02,24,15,14,8.20
2020,02,24,15,15,13.80
2020,02,24,15,16,6.80
2020,02,24,15,17,14.60
2020,02,24,15,18,14.60
2020,02,24,15,19,10.50
2020,02,24,15,20,8.10
2020,02,24,15,21,8.70
2020,02,24,15,22,5.80
2020,02,24,15,23,6.20
2020,02,24,15,24,4.10
2020,02,24,15,25,3.40
2020,02,24,15,26,3.50
2020,02,24,15,27,11.90
2020,02,24,15,28,9.20
2020,02,24,15,29,4.70
2020,02,24,15,30,4.00
2020,02,24,15,31,3.90
2020,02,24,15,32,4.20
2020,02,24,15,33,5.80
2020,02,24,15,34,4.10
2020,02,24,15,35,9.40
2020,02,24,15,36,12.50
2020,02,24,15,37,11.40
2020,02,24,15,38,6.80
2020,02,24,15,39,3.10
2020,02,24,15,40,2.00
2020,02,24,15,41,1.50
2020,02,24,15,42,6.40
2020,02,24,15,43,6.10
2020,02,24,15,44,2.90
2020,02,24,15,45,5.50
2020,02,24,15,46,7.90
2020,02,24,15,47,6.10
2020,02,24,15,48,6.20
2020,02,24,15,49,9.10
2020,02,24,15,50,7.00
2020,02,24,15,51,5.90
2020,02,24,15,52,6.60
2020,02,24,15,53,5.90
2020,02,24,15,54,3.00
2020,02,24,15,55,1.40
2020,02,24,15,56,7.50
2020,02,24,15,57,4.10
2020,02,24,15,58,3.70
2020,02,24,15,59,2.90
2020,02,24,16,00,0.10
2020,02,24,16,01,2.60
2020,02,24,16,02,6.30
2020,02,24,16,03,11.00
2020,02,24,16,04,6.30
2020,02,24,16,05,6.50
2020,02,24,16,06,0.90
2020,02,24,16,07,4.70
2020,02,24,16,08,3.00
2020,02,24,16,09,0.30
2020,02,24,16,10,0.00
2020,02,24,16,11,2.90
2020,02,24,16,12,7.80
2020,02,24,16,13,1.80
2020,02,24,16,14,0.80
2020,02,24,16,15,7.80
2020,02,24,16,16,3.60
2020,02,24,16,17,10.20
2020,02,24,16,18,5.70
2020,02,24,16,19,4.70
2020,02,24,16,20,4.30
2020,02,24,16,21,2.40
2020,02,24,16,22,5.00
2020,02,24,16,23,5.80
2020,02,24,16,24,8.20
2020,02,24,16,25,3.60
2020,02,24,16,26,4.00
2020,02,24,16,27,7.40
2020,02,24,16,28,1.10
2020,02,24,16,29,1.80
2020,02,24,16,30,2.70
2020,02,24,16,31,3.10
2020,02,24,16,32,3.80
2020,02,24,16,33,3.00
2020,02,24,16,34,4.70
2020,02,24,16,35,1.50
2020,02,24,16,36,3.60
2020,02,24,16,37,7.20
2020,02,24,16,38,6.10
2020,02,24,16,39,6.10
2020,02,24,16,40,4.40
2020,02,24,16,41,2.90
2020,02,24,16,42,6.70
2020,02,24,16,43,4.40
2020,02,24,16,44,5.60
2020,02,24,16,45,3.10
2020,02,24,16,46,1.90
2020,02,24,16,47,0.20
2020,02,24,16,48,0.20
2020,02,24,16,49,4.00
2020,02,24,16,50,5.40
2020,02,24,16,51,0.00
2020,02,24,16,52,0.00
2020,02,24,16,53,0.00
2020,02,24,16,54,1.80
2020,02,24,16,55,1.80
2020,02,24,16,56,3.00
2020,02,24,16,57,2.30
2020,02,24,16,58,0.00
2020,02,24,16,59,0.00
2020,02,24,17,00,0.00
2020,02,24,17,01,0.00
2020,02,24,17,02,2.10
2020,02,24,17,03,0.00
2020,02,24,17,04,0.00
2020,02,24,17,05,0.30
2020,02,24,17,06,0.80
2020,02,24,17,07,3.00
2020,02,24,17,08,0.00
2020,02,24,17,09,0.00
2020,02,24,17,10,0.00
2020,02,24,17,11,0.00
2020,02,24,17,12,0.00
2020,02,24,17,13,0.30
2020,02,24,17,14,0.80
2020,02,24,17,15,2.90
2020,02,24,17,16,2.60
2020,02,24,17,17,5.40
2020,02,24,17,18,3.60
2020,02,24,17,19,4.60
2020,02,24,17,20,3.00
2020,02,24,17,21,3.20
2020,02,24,17,22,0.70
2020,02,24,17,23,1.20
2020,02,24,17,24,1.80
2020,02,24,17,25,3.80
2020,02,24,17,26,4.40
2020,02,24,17,27,3.70
2020,02,24,17,28,4.80
2020,02,24,17,29,2.50
2020,02,24,17,30,2.30
2020,02,24,17,31,1.60
2020,02,24,17,32,2.00
2020,02,24,17,33,2.60
2020,02,24,17,34,1.60
2020,02,24,17,35,1.00
2020,02,24,17,36,0.00
2020,02,24,17,37,0.20
2020,02,24,17,38,3.60
2020,02,24,17,39,5.50
2020,02,24,17,40,6.00
2020,02,24,17,41,5.30
2020,02,24,17,42,1.00
2020,02,24,17,43,0.00
2020,02,24,17,44,1.90
2020,02,24,17,45,0.30
2020,02,24,17,46,1.90
2020,02,24,17,47,0.80
2020,02,24,17,48,0.40
2020,02,24,17,49,7.60
2020,02,24,17,50,6.40
2020,02,24,17,51,6.10
2020,02,24,17,52,4.30
2020,02,24,17,53,5.60
2020,02,24,17,54,3.80
2020,02,24,17,55,7.50
2020,02,24,17,56,5.70
2020,02,24,17,57,4.20
2020,02,24,17,58,4.90
2020,02,24,17,59,3.10
2020,02,24,18,00,1.40